リニア彗星

160P/LINEAR (2012)

English version
Home page
Updated on June 11, 2016

---------------------------------------------------------------------

・ プロフィール

・ 写真集

・ 軌道要素

Epoch 2012 Sept. 30.0 TT = JDT 2456200.5
T 2012 Sept. 18.52606 TT                                MPC
q   2.0665481            (2000.0)            P               Q
n   0.12472862     Peri.   18.19982     +0.99098978     +0.06690564
a   3.9672719      Node   337.00175     -0.12554437     +0.76584934
e   0.4791010      Incl.   17.27610     +0.04666751     +0.63952985
P   7.90
From 581 observations 1996 Sept. 8-2012 Oct. 22, mean residual 0".6.
     Nongravitational parameters A1 = -0.75, A2 = -0.0056.

・ 星図

・ 光度変化

        m1 = 7.0 + 5 logΔ + 32.0 log r

---------------------------------------------------------------------

軌道要素はM.P.E.C. 2012-U109に掲載されたものです。
星図はステラナビゲータ Ver.8 (アストロアーツ) で作成したものです。
光度グラフはComet for Windowsで作成したものです。

---------------------------------------------------------------------

Copyright(C) Seiichi Yoshida (comet@aerith.net). All rights reserved.